Find Starlink 5722

NORAD ID: 55610 Int'l Des: 2023-020 Owner: SPXS Country: US Constellation: starlink operational
LEOCIRCULAR

現在のビュー

3D地球を読み込み中...

About Starlink 5722

Starlink 5722 (NORAD 55610) is a starlink constellation satellite (v1.5) launched Feb 12, 2023 by SPXS of US. It operates in LEO, CIRCULAR orbit with a mass of 305.00 kg.

Starlink 5722について

説明を読み込み中...

次回通過

Passes for default location (London). Set your location on the main map for personalized predictions.

高度履歴

Loading altitude history...

軌道要素

1 55610U 23020AT 26194.47665361 .00000357 00000-0 22506-4 0 9998
2 55610 43.0032 4.1151 0001452 258.7060 101.3629 15.27578996188270
Epoch: Jul 13, 2026 • Age: 16 hours

現在のステータス

高度 488.6 km
遠地点 / 近地点 N/A
速度 7.62 km/s
衛星直下点 -24.77°S, 5.53°W
打ち上げ日 Feb 12, 2023
運用期間 3.4 years
タイプ internet

技術仕様

分類 Payload
質量 305.00 kg
乾燥質量 290.00 kg
総質量 305.00 kg
長さ 0.20 m
直径 2.80 m
スパン 9.00 m
形状 Box + pan
製造者 SPXS
バスタイプ Starlink
フェーズステータス In Orbit
所有者/国 SPXS/US

Most Searched